Location: Isola Pescaroli
(45.0500°N, 10.1667°E)
Time: 05:26:15
(UTC+00:00)

Cosmos 1933 Rocket - Pass Details

Date: 03 March 2021
Orbit: 607 x 629 km, 82.5° (Epoch: 13 April)

Event Time Altitude Azimuth Distance (km) Brightness Sun altitude
Rises 18:55:50 0° 201° (SSW) 2,858 7.1 -19.5°
Reaches altitude 10° 18:58:05 10° 206° (SSW) 1,962 6.3 -19.9°
Maximum altitude 19:02:18 50° 282° (WNW) 788 4.5 -20.6°
Drops below altitude 10° 19:06:35 10° 359° (N) 1,990 6.3 -21.4°
Sets 19:08:54 0° 4° (N) 2,904 7.1 -21.8°
